Regional Weather Roundup
Issued by NWS

Home | Current Version | Previous Version | Text Only | Print | Product List | Glossary On
Versions: 1 2 3 4 5 6 7 8 9 10 11 12 13 14 15 16 17 18 19 20 21 22 23 24 25 26 27 28 29 30 31 32 33 34 35 36 37 38 39 40 41 42 43 44 45 46 47 48 49 50
000
ASUS44 KFWD 292101
RWRTX
NORTH TEXAS HOURLY WEATHER ROUNDUP
NATIONAL WEATHER SERVICE FORT WORTH TX
400 PM CDT SUN MAR 29 2015

NOTE: "FAIR" INDICATES FEW OR NO CLOUDS BELOW 12,000 FEET WITH NO
SIGNIFICANT WEATHER AND/OR OBSTRUCTIONS TO VISIBILITY.

TXZ118-119-292200-
DALLAS/FORT WORTH METROPLEX

CITY           SKY/WX    TMP DP  RH WIND       PRES   REMARKS
DFW AIRPORT    MOSUNNY   82  59  45 S21       29.94F
DALLAS LOVE    MOSUNNY   85  57  38 S18       29.95F
FTW MEACHAM    SUNNY     84  59  42 S17G25    29.93S
DAL-EXECUTIVE  SUNNY     82  57  42 S16G26    29.94F
FTW-ALLIANCE   MOSUNNY   83  58  42 S17G26    29.92F
FTW-NAS-JRB    MOSUNNY   86  59  39 S13G30    29.97F
FTW-SPINKS     SUNNY     82  57  42 S20G26    29.95F
ARLINGTON      SUNNY     84  56  38 SE21G30   29.94F
GRAND PRAIRIE  SUNNY     82  59  44 S13G24    29.97F
ADDISON        SUNNY     82  55  39 S18G25    29.95F
MESQUITE       SUNNY     81  55  41 S21G32    29.97F
LANCASTER      SUNNY     80  56  43 S18G30    29.97F
$$

TXZ091>094-102>105-117-120-121-131>134-292200-
NORTH CENTRAL TEXAS

CITY           SKY/WX    TMP DP  RH WIND       PRES   REMARKS
SHRMAN/DENISON SUNNY     82  59  45 SW10G17   29.98R
GAINESVILLE    SUNNY     81  55  41 S12       29.98S
BRIDGEPORT     SUNNY     86  57  36 S12G17    29.94F
DECATUR        SUNNY     85  49  29 S12G20    29.94F
DENTON         SUNNY     83  57  41 S20G26    29.93F
MCKINNEY       SUNNY     82  57  42 S22       29.94F
ROCKWALL       SUNNY     82  57  43 S28G37    29.94F
TERRELL        SUNNY     83  54  36 SW21G28   29.97F
WAXAHACHIE     SUNNY     81  59  47 S17G29    29.98F
CLEBURNE       SUNNY     82  59  44 S18G25    29.96F
GRANBURY         N/A     88  55  32 SE15G21   29.93F
$$

TXZ083>090-098>101-113>116-127>130-139>142-154-155-292200-
WESTERN NORTH TEXAS

CITY           SKY/WX    TMP DP  RH WIND       PRES   REMARKS
WICHITA FALLS  SUNNY     84  52  33 N18       29.96R
WF-KICKAPOO    SUNNY     85  47  26 NW17      29.97R
VERNON         SUNNY     83  29  14 N28G36    30.02R
ABILENE        SUNNY     89  50  26 SW13      29.95F
ABILENE-DYESS  SUNNY     90  48  23 NW13G22   29.94S
MINERAL WELLS  SUNNY     89  53  29 S16       29.91F
STEPHENVILLE   SUNNY     87  49  26 S15       29.97F
COMANCHE       SUNNY     88  53  30 SW17G25   29.95F
COLEMAN        SUNNY     92  50  23 SW16      29.94F
BRADY          SUNNY     91  48  22 S10       29.96F
$$

TXZ143>147-156>162-174-175-292200-
CENTRAL TEXAS

CITY           SKY/WX    TMP DP  RH WIND       PRES   REMARKS
WACO           SUNNY     82  56  40 S20G26    29.99F
WACO-TSTC      SUNNY     84  52  32 S24       29.99F
WACO-MCGREGOR  SUNNY    N/A N/A N/A MISG        N/A
HILLSBORO      SUNNY     82  56  41 S25       29.97F
CORSICANA      SUNNY     83  55  38 S21G30    30.00F
MEXIA          SUNNY     81  55  40 S20G26    30.00F
HEARNE         SUNNY     82  55  38 S20G29    30.04F
TEMPLE         SUNNY     82  54  36 S30G37    29.98F
KILLEEN        SUNNY     84  53  34 S23       29.98F
KILLEEN-SKYLRK SUNNY     84  52  32 MISG      30.00S
FORT HOOD      SUNNY     85  52  32 S21G29    29.98F
HAMILTON       SUNNY     87  51  29 S18G30    29.97F
$$

TXZ095>097-106>112-122>126-135>138-148>153-164>167-292200-
EAST TEXAS

CITY           SKY/WX    TMP DP  RH WIND       PRES   REMARKS
SULPHUR SPRNGS SUNNY     82  50  33 S21G29    30.00F
MOUNT PLEASANT SUNNY     84  46  27 S16G22    30.00F
GILMER         SUNNY     83  50  31 S16G24    30.00F
MINEOLA        SUNNY     82  45  26 S15G21    30.01F
TYLER          SUNNY     83  51  33 SW18G29   30.00F
LONGVIEW       SUNNY     84  52  33 S21G30    30.01F
MARSHALL         N/A     86  52  30 SW16      30.04F
ATHENS         SUNNY     81  50  34 S12G25    29.99F
PALESTINE      SUNNY     85  53  33 S14G24    30.04F
JACKSONVILLE   SUNNY     81  51  35 S16G26    30.06F
NACOGDOCHES    MOSUNNY   81  57  44 S18       30.06F
LUFKIN         SUNNY     85  58  39 S12G20    30.07F
$$

SUPPLEMENTAL OBSERVATIONS (CENTRAL)

CITY           SKY/WX    TMP DP  RH WIND       PRES   REMARKS
$$

SUPPLEMENTAL OBSERVATIONS (WEST)

CITY           SKY/WX    TMP DP  RH WIND       PRES   REMARKS
$$

SUPPLEMENTAL OBSERVATIONS (EAST)

CITY           SKY/WX    TMP DP  RH WIND       PRES   REMARKS
$$

SUPPLEMENTAL OBSERVATIONS ARE A COLLECTION OF AUTOMATED INSTRUMENTS
THAT ARE MAINTAINED BY A VARIETY OF FEDERAL AND STATE AGENCIES.
CERTAIN ELEMENTS...SUCH AS HUMIDITY VALUES AND SUSTAINED WIND
SPEEDS...MAY BE APPROXIMATED.




USA.gov is the U.S. government's official web portal to all federal, state and local government web resources and services.